THOR ABLESTAR DEB *, 48812

Orbit data source: Space-Track

THOR ABLESTAR DEB *, 48812 is space debris in LEO originally from a launch on Thu, 29 Jun 1961 UTC launched from the Air Force Eastern Test Range (AFETR). Debris objects in space refer to the collection of defunct objects orbiting the Earth. Examples of debris include non-operational satellites, rocket bodies, and fragments generated from explosions, collisions, or faulty payload assembly.

Loading next visibility...
Identifier
48812, 1961-015MQ
Orbit
LEO
Country
Flag of USUS
Related business
Manufacturer
Unknown
Mission
Spacecraft
Bus & Motor
Unknown
Mass
Unknown
Launch date (UTC)
1961-06-29 (64 years ago)
Launch vehicle
Unknown
Launch site
Air Force Eastern Test Range (AFETR)
Object type
Payload
Rocket body
Debris
Shape & HBR
Unknown shape, 0.1 m
Radar Cross Section
Small (<0.1 m²)

Expand to show TLE details & history
Last TLE update: 12 hours ago

TLE from 12 hours ago
0 THOR ABLESTAR DEB *
1 48812U 61015MQ  25297.58259781 -.00000204  00000-0 -89229-3 0  9997
2 48812  67.3139 248.8778 0351557 155.8830 205.9095 12.43787317543829
Epoch: 2025-10-24T13:58Z
TLE epoch observation values (Epoch: 2025-10-24T13:58:56.450Z)
Latitude
Longitude
5.91717°
Altitude
1,743.182 km
Speed
6.895 km/s
True Right ascension
16h 35m 30s
True Declination
0° 00' 00"
Sunlit
Object was in daylight at epoch
Visualization orbit readout
Latitude
Unknown
Longitude
Unknown
Altitude
Unknown
Speed
Unknown
Apparent Right ascension
Unknown
Apparent Declination
Unknown
Sunlit
N/A
Visualization observer readout
Local Sidereal Time
21:35:34
Azimuth
Unknown
Elevation
Unknown
Doppler factor
Unknown
Orbital elements
Apogee altitude
1,765.618 km
Perigee altitude
1,212.465 km
Semi-major axis
7,867.179 km
Eccentricity
0.03516
Inclination
67.3139°
RAAN
248.8778°
Arg. of periapsis
155.883°
True anomaly
204.2165°
Mean anomaly
205.9095°
Eccentric anomaly
205.05643°
Mean motion
3.11039 °/min
Orbital period
115.74 mins
BSTAR
-0.00089229
Loading maneuver chart data...
Computing Atmospheric mass density...

Documentation

Showing up to 5 results
|